Location: Fours
(44.3167°N, 6.7000°E)
Time: 08:51:05
(UTC+00:00)

Cosmos 773 Rocket - Pass Details

Date: 30 November 2020
Orbit: 746 x 776 km, 74.1° (Epoch: 25 January)

Event Time Altitude Azimuth Distance (km) Brightness Sun altitude
Rises 17:19:16 0° 205° (SSW) 3,222 7.9 -14.5°
Reaches altitude 10° 17:21:38 10° 208° (SSW) 2,304 7.1 -14.9°
Maximum altitude 17:26:51 70° 292° (WNW) 822 4.3 -15.8°
Drops below altitude 10° 17:32:09 10° 17° (NNE) 2,333 6.2 -16.8°
Enters shadow 17:32:47 - 18° (NNE) 2,575 6.4 -16.9°
